Miscellaneous Local Product
Issued by NWS North Platte, NE

Home | Current Version | Previous Version | Text Only | Print | Product List | Glossary On
Versions: 1 2 3 4 5 6 7 8 9 10 11 12 13 14 15 16 17 18 19 20 21 22 23 24 25 26 27 28 29 30 31 32 33 34 35 36 37 38 39 40 41 42 43 44 45 46 47 48 49 50
000
AXUS43 KLBF 100410
MISLBF


WESTERN AND NORTH CENTRAL NEBRASKA HOURLY WEATHER ROUNDUP
NATIONAL WEATHER SERVICE NORTH PLATTE NE
1000 PM CST SAT DEC 09 2017

NOTE: "FAIR" INDICATES FEW OR NO CLOUDS BELOW 12,000 FEET WITH NO
SIGNIFICANT WEATHER AND/OR OBSTRUCTIONS TO VISIBILITY.

NOTE: STATIONS NOT REPORTING VARIABLES SUCH AS SKY/WEATHER OR
PRESSURE ARE PROVIDED BY RAWS AND APRS NETWORKS AND ARE NOT UNDER
NATIONAL WEATHER SERVICE QUALITY CONTROL.

...OBSERVATIONS IN AND NEAR THE EASTERN PANHANDLE OF NEBRASKA...

CITY           SKY/WX    TMP DP  RH WIND       PRES   REMARKS
PINE RIDGE     CLEAR     39  20  46 W7        30.23R WCI  34
GORDON         FAIR      41  18  40 W16       30.20R
CHADRON        CLEAR     37  17  44 W15       30.26R WCI  28
ALLIANCE       CLEAR     25  11  55 W12       30.26R WCI  14
SIDNEY         CLOUDY    36  11  35 W15       30.31S WCI  27
CRESCENT LAKE    N/A     36  10  33 W13G20      N/A  WCI  27
$$

...OBSERVATIONS IN NORTHERN NEBRASKA AND FAR SOUTHERN SOUTH DAKOTA...

CITY           SKY/WX    TMP DP  RH WIND       PRES   REMARKS
WINNER         FAIR      41  21  44 W12       30.04S
VALENTINE      CLOUDY    34  20  56 W8        30.11S WCI  27
THEDFORD       CLEAR     39  18  42 W12       30.15S WCI  32
AINSWORTH      CLEAR     37  22  54 W10       30.09S WCI  30
O`NEILL        CLOUDY    38  24  57 W12       30.04S WCI  30
ORD            CLOUDY    29  18  63 NW5       30.08F WCI  24
BROKEN BOW     CLEAR     44  14  29 NW18      30.12S
VALENTINE NWR    N/A     43  17  34 NW13        N/A
HALSEY           N/A     45  14  28 W13G21      N/A
BUTTE            N/A     39  25  57 W6          N/A  WCI  35
CHAMBERS         N/A     39  22  50 NW3         N/A
EWING            N/A     35  25  66 W6          N/A  WCI  30
$$

...OBSERVATIONS IN SOUTHWEST NEBRASKA AND FAR NORTHEAST COLORADO...

CITY           SKY/WX    TMP DP  RH WIND       PRES   REMARKS
WRAY           FAIR      32   9  37 W7        30.30S WCI  26
HOLYOKE        FAIR      41  10  28 W13       30.29R
IMPERIAL       CLEAR     38  11  32 W12       30.25S WCI  30
OGALLALA       CLEAR     32  12  43 SW9       30.24S WCI  24
NORTH PLATTE   CLEAR     29  16  58 NW9       30.20R WCI  20
MCCOOK         CLEAR     39  12  33 W12       30.21R WCI  32
LEXINGTON      CLOUDY    28  14  55 NW7       30.17S WCI  21
STAPLETON        N/A     37  15  40 CALM        N/A
GOTHENBURG       N/A     44  13  28 W9          N/A
CALLAWAY         N/A     36  15  41 NW13        N/A  WCI  27
$$

...OBSERVATIONS IN CENTRAL LINCOLN COUNTY AREA...

CITY           SKY/WX    TMP DP  RH WIND       PRES   REMARKS
N.P. AIRPORT   CLEAR     29  16  58 NW9       30.20R WCI  20
N.P. DOWNTOWN    N/A     40  15  36 CALM        N/A
N.P. SOUTHEAST   N/A     42  14  32 W6G15       N/A
N.P. HILLCREST   N/A     35  16  46 W7          N/A  WCI  29
$$

...SOME OBSERVATIONS FROM AROUND THE REGION...

CITY           SKY/WX    TMP DP  RH WIND       PRES   REMARKS
DENVER         CLOUDY    39   1  20 SW7       30.40R WCI  34
GRAND JUNCTION CLOUDY    27   8  44 E7        30.54R WCI  19
LARAMIE        CLOUDY    18   8  65 CALM      30.44S
CHEYENNE       CLOUDY    31   2  29 SW9       30.39R WCI  23
CASPER         CLOUDY    32  16  51 SW13      30.40R WCI  22
BISMARCK       CLOUDY    42  27  55 NW15      29.97S
RAPID CITY     CLEAR     49   8  19 NW15      30.17R
PIERRE         CLEAR     45  22  40 NW17      30.02R
SIOUX FALLS    CLOUDY    27  22  81 SW6       29.92F WCI  20
OMAHA          CLOUDY    25  18  74 SE9       30.07F WCI  15
GRAND ISLAND   CLOUDY    36  19  50 W15       30.10F WCI  27
SCOTTSBLUFF    CLEAR     30  12  47 NW6       30.33R WCI  24
KANSAS CITY    CLOUDY    25  17  72 S6        30.18F WCI  18
HILL CITY      CLEAR     36  15  42 W10       30.22R WCI  28
WICHITA        CLOUDY    30  22  72 SW7       30.25S WCI  23
DODGE CITY     CLOUDY    37  13  37 W10       30.28S WCI  30
OKLAHOMA CITY  CLEAR     38  21  50 CALM      30.30R
DALLAS         CLEAR     47  24  40 NW6       30.32R
AMARILLO       CLOUDY    36  12  37 SW6       30.38R WCI  31
$$




USA.gov is the U.S. government's official web portal to all federal, state and local government web resources and services.